Regional Weather Roundup
Issued by NWS

Home | Current Version | Previous Version | Graphics & Text | Print | Product List | Glossary On
Versions: 1 2 3 4 5 6 7 8 9 10 11 12 13 14 15 16 17 18 19 20 21 22 23 24 25 26 27 28 29 30 31 32 33 34 35 36 37 38 39 40 41 42 43 44 45 46 47 48 49 50
000
ASUS45 KABQ 270101
RWRNM
NEW MEXICO REGIONAL WEATHER ROUNDUP
NATIONAL WEATHER SERVICE ALBUQUERQUE NM
700 PM MDT FRI AUG 26 2016

NOTE: "FAIR" MEANS FEW OR NO CLOUDS BELOW 12,000 FEET AGL WITH NO
       SIGNIFICANT WEATHER OR OBSTRUCTIONS TO VISION.

      THIS PRODUCT IS RELEASED AS TWO VERSIONS.  ONE VERSION NEAR
      THE TOP OF THE HOUR CONTAINING PRELIMINARY DATA FROM ALBUQUERQUE
      AND OTHER STATIONS.  A FINAL VERSION WITH ADDITIONAL DATA IS
      ISSUED ABOUT 10 MINUTES AFTER THE HOUR.

NMZ501-503-504-510>518-270200-
NORTHWEST PLATEAU/NORTHCENTRAL MOUNTAINS

CITY           SKY/WX    TMP DP  RH WIND       PRES   REMARKS
FARMINGTON     FAIR      74  35  24 W10       30.12S
LOS ALAMOS     CLOUDY    64  46  53 CALM      30.27R
SANTA FE       MOCLDY    71  48  43 N3        30.19S
TAOS           CLOUDY    66  43  42 SW10      30.24R
ANGEL FIRE     MOCLDY    58  44  59 W8        30.32S

$$
NMZ402-403-502-505>509-270200-
WESTCENTRAL MOUNTAINS/SOUTHWEST MOUNTAINS

CITY           SKY/WX    TMP DP  RH WIND       PRES   REMARKS
GALLUP         FAIR      71  42  35 SW8       30.20R
GRANTS         FAIR      70  42  36 CALM      30.22S
SILVER CITY    CLOUDY    72  54  53 SW9G21    30.16R THUNDER

$$
NMZ407-409-411-412-270200-
SOUTHERN DESERTS

CITY           SKY/WX    TMP DP  RH WIND       PRES   REMARKS
DEMING         FAIR      83  51  33 W10       30.05R
LAS CRUCES     CLOUDY    80  50  35 N10G16    30.08R
ALAMOGORDO     FAIR      75  54  46 N15       30.07R
T OR C         FAIR      77  46  33 NW5       30.11R

$$
NMZ519>523-270200-
CENTRAL VALLEYS/CENTRAL HIGHLANDS

CITY           SKY/WX    TMP DP  RH WIND       PRES   REMARKS
ALBUQUERQUE    MOCLDY    77  44  30 CALM      30.14R
MORIARTY ARPT  FAIR      67  50  54 NE5       30.21S
CLINES CORNERS NOT AVBL
BELEN          CLOUDY    77  44  30 N8        30.12S
SOCORRO        FAIR      78  42  28 CALM      30.11S

$$
NMZ524>526-539-540-270200-
SOUTHCENTRAL MOUNTAINS

CITY           SKY/WX    TMP DP  RH WIND       PRES   REMARKS
RUIDOSO        NOT AVBL

$$
NMZ527>531-270200-
NORTHEAST HIGHLANDS/NORTHEAST PLAINS

CITY           SKY/WX    TMP DP  RH WIND       PRES   REMARKS
LAS VEGAS      MOCLDY    59  51  75 S7        30.24S
RATON          FAIR      66  49  54 S14       30.16S
CLAYTON        FAIR      69  53  56 W13       30.08F

$$
NMZ532>537-270200-
EASTCENTRAL PLAINS

CITY           SKY/WX    TMP DP  RH WIND       PRES   REMARKS
TUCUMCARI      FAIR      73  57  57 N20G29    30.07R
CANNON AFB     CLOUDY    75  62  65 SE8       30.08R
CLOVIS AIRPORT MOCLDY    70  61  73 S18       30.08R

$$
NMZ028-029-538-270200-
SOUTHEAST PLAINS

CITY           SKY/WX    TMP DP  RH WIND       PRES   REMARKS
ROSWELL        FAIR      80  58  46 SE6       30.03S
ARTESIA        FAIR      82  61  47 S7        30.03S
CARLSBAD       FAIR      82  59  45 S3        30.01S
HOBBS          FAIR      73  64  73 SE9       30.08R


$$




USA.gov is the U.S. government's official web portal to all federal, state and local government web resources and services.